Location: Foligno
(42.9600°N, 12.7050°E)
Time: 08:23:02
(UTC+01:00)

ISS - Pass Details

Date: 13 November 2018
Orbit: 401 x 408 km, 51.6° (Epoch: 20 November)

Event Time Altitude Azimuth Distance (km) Brightness Sun altitude
Exits shadow 05:01:55 62° 69° (ENE) 459 -3.4 -21.4°
Drops below altitude 10° 05:04:52 10° 115° (ESE) 1,458 0.0 -20.9°
Sets 05:06:58 0° 118° (ESE) 2,317 1.2 -20.5°
